TimeEDT,TemperatureF,Dew PointF,Humidity,Sea Level PressureIn,VisibilityMPH,Wind Direction,Wind SpeedMPH,Gust SpeedMPH,PrecipitationIn,Events,Conditions,WindDirDegrees,DateUTC
12:53 AM,71.1,66.9,87,29.99,8.0,Calm,Calm,-,N/A,,Overcast,0,2013-08-27 04:53:00
1:53 AM,69.1,66.0,90,29.98,3.0,Calm,Calm,-,N/A,,Scattered Clouds,0,2013-08-27 05:53:00
2:26 AM,69.8,66.2,88,30.00,4.0,Calm,Calm,-,N/A,,Mostly Cloudy,0,2013-08-27 06:26:00
2:41 AM,69.8,66.2,88,30.00,4.0,Calm,Calm,-,N/A,,Mostly Cloudy,0,2013-08-27 06:41:00
2:53 AM,68.0,64.9,90,29.98,4.0,Calm,Calm,-,N/A,,Scattered Clouds,0,2013-08-27 06:53:00
3:07 AM,68.0,64.4,88,30.00,2.5,Calm,Calm,-,N/A,,Partly Cloudy,0,2013-08-27 07:07:00
3:14 AM,68.0,64.4,88,30.00,3.0,Calm,Calm,-,N/A,,Clear,0,2013-08-27 07:14:00
3:25 AM,68.0,64.4,88,29.99,2.0,Calm,Calm,-,N/A,,Clear,0,2013-08-27 07:25:00
3:40 AM,68.0,64.4,88,29.99,1.0,Calm,Calm,-,N/A,,Clear,0,2013-08-27 07:40:00
3:53 AM,68.0,64.9,90,29.97,2.5,Calm,Calm,-,N/A,,Clear,0,2013-08-27 07:53:00
4:00 AM,68.0,64.4,88,29.99,3.0,Calm,Calm,-,N/A,,Clear,0,2013-08-27 08:00:00
4:20 AM,66.2,64.4,94,29.99,1.8,Calm,Calm,-,N/A,,Clear,0,2013-08-27 08:20:00
4:29 AM,68.0,64.4,88,29.99,1.0,Calm,Calm,-,N/A,,Clear,0,2013-08-27 08:29:00
4:33 AM,68.0,64.4,88,29.99,2.0,Calm,Calm,-,N/A,,Clear,0,2013-08-27 08:33:00
4:41 AM,68.0,66.2,94,29.99,3.0,Calm,Calm,-,N/A,,Clear,0,2013-08-27 08:41:00
4:53 AM,68.0,64.9,90,29.97,2.5,Calm,Calm,-,N/A,,Clear,0,2013-08-27 08:53:00
5:05 AM,68.0,66.2,94,30.00,1.0,Calm,Calm,-,N/A,,Clear,0,2013-08-27 09:05:00
5:14 AM,66.2,64.4,94,30.00,0.5,Calm,Calm,-,N/A,Fog,Fog,0,2013-08-27 09:14:00
5:32 AM,68.0,64.4,88,30.00,1.2,Calm,Calm,-,N/A,,Clear,0,2013-08-27 09:32:00
5:46 AM,68.0,64.4,88,29.99,2.5,Calm,Calm,-,N/A,,Clear,0,2013-08-27 09:46:00
5:53 AM,68.0,64.9,90,29.97,3.0,Calm,Calm,-,N/A,,Clear,0,2013-08-27 09:53:00
6:01 AM,68.0,64.4,88,29.99,2.5,Calm,Calm,-,N/A,,Clear,0,2013-08-27 10:01:00
6:17 AM,68.0,66.2,94,30.00,1.2,Calm,Calm,-,N/A,,Clear,0,2013-08-27 10:17:00
6:23 AM,66.2,64.4,94,29.99,0.8,Calm,Calm,-,N/A,,Clear,0,2013-08-27 10:23:00
6:36 AM,66.2,64.4,94,29.99,0.2,Calm,Calm,-,N/A,Fog,Fog,0,2013-08-27 10:36:00
6:53 AM,68.0,64.9,90,29.97,0.5,Calm,Calm,-,N/A,Fog,Fog,0,2013-08-27 10:53:00
7:09 AM,68.0,64.4,88,29.99,0.8,Calm,Calm,-,N/A,,Clear,0,2013-08-27 11:09:00
7:13 AM,68.0,66.2,94,30.00,1.2,Calm,Calm,-,N/A,,Clear,0,2013-08-27 11:13:00
7:24 AM,68.0,66.2,94,30.00,2.0,Calm,Calm,-,N/A,,Clear,0,2013-08-27 11:24:00
7:41 AM,69.8,66.2,88,30.00,3.0,Calm,Calm,-,N/A,,Clear,0,2013-08-27 11:41:00
7:49 AM,69.8,66.2,88,30.00,2.5,Calm,Calm,-,N/A,,Clear,0,2013-08-27 11:49:00
7:53 AM,70.0,66.9,90,29.98,3.0,Calm,Calm,-,N/A,,Clear,0,2013-08-27 11:53:00
8:53 AM,73.9,69.1,85,29.98,6.0,SW,5.8,-,N/A,,Haze,220,2013-08-27 12:53:00
9:53 AM,77.0,69.1,76,29.97,7.0,West,8.1,-,N/A,,Mostly Cloudy,270,2013-08-27 13:53:00
10:37 AM,75.2,69.8,83,30.01,7.0,West,10.4,-,N/A,,Mostly Cloudy,280,2013-08-27 14:37:00
10:53 AM,75.0,69.1,82,29.99,6.0,West,9.2,-,N/A,,Haze,270,2013-08-27 14:53:00
11:50 AM,75.2,69.8,83,30.00,8.0,West,11.5,-,N/A,,Mostly Cloudy,260,2013-08-27 15:50:00
11:53 AM,75.9,70.0,82,29.98,8.0,West,10.4,-,N/A,,Mostly Cloudy,260,2013-08-27 15:53:00
12:15 PM,73.4,69.8,88,30.00,6.0,West,13.8,-,N/A,,Haze,260,2013-08-27 16:15:00
12:53 PM,77.0,69.1,76,29.95,10.0,SW,6.9,-,N/A,,Scattered Clouds,230,2013-08-27 16:53:00
1:53 PM,80.1,66.9,64,29.94,10.0,SW,6.9,-,N/A,,Scattered Clouds,220,2013-08-27 17:53:00
2:53 PM,78.1,66.9,68,29.93,10.0,NNW,4.6,-,N/A,,Clear,340,2013-08-27 18:53:00
3:53 PM,79.0,66.9,66,29.93,10.0,WNW,8.1,16.1,N/A,,Clear,290,2013-08-27 19:53:00
4:53 PM,78.1,66.0,66,29.93,10.0,WNW,5.8,-,N/A,,Clear,290,2013-08-27 20:53:00
5:53 PM,77.0,66.9,71,29.94,10.0,WNW,4.6,-,N/A,,Clear,290,2013-08-27 21:53:00
6:53 PM,77.0,68.0,74,29.93,10.0,Calm,Calm,-,N/A,,Clear,0,2013-08-27 22:53:00
7:53 PM,73.9,69.1,85,29.93,10.0,Calm,Calm,-,N/A,,Partly Cloudy,0,2013-08-27 23:53:00
8:53 PM,73.0,69.1,87,29.94,9.0,Calm,Calm,-,N/A,,Scattered Clouds,0,2013-08-28 00:53:00
9:53 PM,72.0,69.1,91,29.93,7.0,East,3.5,-,N/A,,Mostly Cloudy,90,2013-08-28 01:53:00
10:31 PM,73.4,69.8,88,29.97,6.0,West,5.8,-,0.01,,Overcast,260,2013-08-28 02:31:00
10:36 PM,71.6,69.8,94,29.97,2.0,WSW,4.6,-,0.06,Rain,Heavy Rain,240,2013-08-28 02:36:00
10:40 PM,71.6,69.8,94,29.96,1.0,Variable,3.5,-,0.17,Rain,Heavy Rain,0,2013-08-28 02:40:00
10:46 PM,71.6,69.8,94,29.96,1.2,SSW,4.6,-,0.23,Rain,Heavy Rain,200,2013-08-28 02:46:00
10:51 PM,71.6,69.8,94,29.97,3.0,Calm,Calm,-,0.24,Rain,Light Rain,0,2013-08-28 02:51:00
10:53 PM,72.0,69.1,91,29.95,4.0,Calm,Calm,-,0.24,Rain,Light Rain,0,2013-08-28 02:53:00
11:15 PM,71.6,69.8,94,29.95,4.0,SE,4.6,-,0.05,Rain,Rain,140,2013-08-28 03:15:00
11:53 PM,72.0,69.1,91,29.92,8.0,South,5.8,-,0.08,Rain,Light Rain,180,2013-08-28 03:53:00